Nantucket, MA

11:45 AM EST on December 16, 2017 (GMT -0500)
Nantucket Memorial

Weather History for KACK - April, 2014

Change the Weather History Date:

Sunday, April 27, 2014

  Actual Average Record
Temperature  
Mean Temperature 42 °F -  
Max Temperature 50 °F 52 °F 63 °F (2017)
Min Temperature 37 °F 39 °F 28 °F (1972)
Degree Days  
Heating Degree Days 22    
Moisture  
Dew Point 37 °F    
Average Humidity 80    
Maximum Humidity 89    
Minimum Humidity 66    
Precipitation  
Precipitation 0.02 in - - ()
Sea Level Pressure  
Sea Level Pressure 29.92 in    
Wind  
Wind Speed 4 mph (NNW)    
Max Wind Speed 16 mph    
Max Gust Speed 20 mph    
Visibility 10 miles    
Events Rain    
Averages and records for this station are not official NWS values.
T = Trace of Precipitation, MM = Missing Value Source: NWS Daily Summary

Daily Weather History Graph

Daily Weather History Graph

Search for Another Location

Airport or City:

Trip Planner

Search our weather history database for the weather conditions in past years. The results will help you decide how hot, cold, wet, or windy it might be!

Date:

Astronomy

Apr. 27, 2014 Rise Set
Actual Time 5:43 AM EDT 7:33 PM EDT
Civil Twilight 5:13 AM EDT 8:02 PM EDT
Nautical Twilight 4:37 AM EDT 8:39 PM EDT
Astronomical Twilight 3:58 AM EDT 9:18 PM EDT
Moon 4:42 AM EDT (4/27) 6:02 PM EDT (4/27)
Length of Visible Light 14h 49m
Length of Day
13h 50m
Waning Crescent, 3% of the Moon is Illuminated
Apr 27
Waning Crescent
Apr 29
New
May 6
First Quarter
May 14
Full
May 21
Last Quarter

Hourly Weather History & Observations

Time (EDT) Temp. Windchill Dew Point Humidity Pressure Visibility Wind Dir Wind Speed Gust Speed Precip Events Conditions
12:53 AM 37.9 °F 34.4 °F 34.0 °F 86% 29.86 in 10.0 mi ENE 4.6 mph - N/A   Mostly Cloudy
1:53 AM 39.0 °F 36.8 °F 35.1 °F 86% 29.86 in 10.0 mi NW 3.5 mph - N/A   Overcast
2:53 AM 39.0 °F - 36.0 °F 89% 29.85 in 10.0 mi Calm Calm - N/A   Overcast
3:37 AM 39.2 °F - 35.6 °F 87% 29.86 in 10.0 mi Calm Calm - N/A   Overcast
3:53 AM 41.0 °F - 37.0 °F 86% 29.86 in 10.0 mi Calm Calm - N/A   Overcast
4:10 AM 41.0 °F - 37.4 °F 87% 29.85 in 10.0 mi Calm Calm - 0.00 in   Overcast
4:53 AM 39.9 °F - 36.0 °F 86% 29.86 in 10.0 mi Calm Calm - 0.00 in   Overcast
5:53 AM 39.9 °F 37.8 °F 36.0 °F 86% 29.86 in 10.0 mi North 3.5 mph - N/A   Overcast
6:53 AM 42.1 °F - 37.9 °F 85% 29.88 in 10.0 mi Calm Calm - N/A   Overcast
7:53 AM 43.0 °F - 39.0 °F 86% 29.89 in 10.0 mi Calm Calm - 0.01 in Rain Light Rain
8:20 AM 42.8 °F - 39.2 °F 87% 29.89 in 10.0 mi Calm Calm - 0.00 in Rain Light Rain
8:53 AM 43.0 °F - 39.0 °F 86% 29.90 in 10.0 mi Calm Calm - 0.00 in   Overcast
9:53 AM 44.1 °F - 37.9 °F 79% 29.91 in 10.0 mi Calm Calm - 0.01 in   Overcast
10:53 AM 45.0 °F 43.5 °F 36.0 °F 71% 29.92 in 10.0 mi Variable 3.5 mph - N/A   Overcast
12:53 PM 45.0 °F 41.2 °F 36.0 °F 71% 29.94 in 10.0 mi North 6.9 mph - N/A   Overcast
1:39 PM 44.6 °F 41.4 °F 37.4 °F 76% 29.94 in 7.0 mi North 5.8 mph - N/A   Overcast
1:53 PM 46.0 °F 42.5 °F 39.9 °F 79% 29.94 in 10.0 mi North 6.9 mph - N/A   Overcast
2:11 PM 44.6 °F 40.2 °F 39.2 °F 81% 29.95 in 7.0 mi NNW 8.1 mph - N/A   Overcast
2:53 PM 46.9 °F - 37.9 °F 71% 29.94 in 10.0 mi North 11.5 mph - N/A   Overcast
3:07 PM 48.2 °F - 37.4 °F 66% 29.94 in 10.0 mi North 15.0 mph - N/A   Overcast
4:53 PM 48.0 °F - 37.9 °F 68% 29.96 in 10.0 mi North 16.1 mph - N/A   Partly Cloudy
5:53 PM 46.0 °F 40.2 °F 37.0 °F 71% 29.96 in 10.0 mi North 12.7 mph 19.6 mph N/A   Mostly Cloudy
6:53 PM 45.0 °F 38.9 °F 37.0 °F 74% 29.97 in 10.0 mi NNW 12.7 mph - N/A   Clear
7:53 PM 44.1 °F 39.0 °F 37.0 °F 76% 29.98 in 10.0 mi NNW 9.2 mph - N/A   Clear
8:53 PM 44.1 °F 39.5 °F 37.0 °F 76% 30.01 in 10.0 mi NNW 8.1 mph - N/A   Clear
9:53 PM 44.1 °F 40.1 °F 37.0 °F 76% 30.01 in 10.0 mi WNW 6.9 mph - N/A   Clear
10:53 PM 41.0 °F 37.1 °F 36.0 °F 82% 30.02 in 10.0 mi WNW 5.8 mph - N/A   Clear
11:53 PM 42.1 °F 37.7 °F 37.9 °F 85% 30.00 in 10.0 mi WNW 6.9 mph - N/A   Clear